Wind_Speed
87 86 73 66 69 78 73 80 77 80 80 82 82 81 81 79 76 75 72 73 73 75 75 74 74 73 73 76 76 79 85 83 82 81 74 75 69 68 66 64 60 59 58
93 91 86 84 73 74 75 82 81 78 81 80 80 85 86 84 84 83 84 81 77 73 75 75 74 74 79 80 85 90 91 90 88 81 75 77 72 69 68 66 65 62 62
101 95 86 75 75 76 79 82 90 92 86 87 87 89 89 83 85 83 85 83 83 83 82 81 82 84 89 91 92 90 90 91 90 81 77 80 76 75 71 68 65 64 66
111 110 103 102 102 95 91 93 98 97 99 103 99 97 98 97 96 94 92 90 87 85 86 85 88 89 92 94 93 95 94 92 89 85 80 83 80 79 73 70 69 69 72
117 110 111 112 112 110 112 114 112 107 101 101 103 100 104 105 105 103 101 97 95 98 96 93 96 95 97 98 96 97 96 94 90 84 86 86 82 81 77 73 70 72 76
134 124 120 118 113 128 120 129 125 117 116 114 114 112 108 105 113 113 110 108 103 97 98 96 98 105 103 98 99 103 101 96 92 89 90 86 83 80 77 74 75 78 82
136 135 132 126 128 128 127 126 127 122 120 119 120 120 122 122 121 120 120 114 114 110 104 103 106 104 102 103 106 106 102 99 94 93 90 89 85 77 76 77 81 85 85
144 146 144 140 136 134 130 129 126 122 122 123 127 130 130 128 127 126 124 121 119 116 116 114 113 108 106 105 107 108 105 99 95 93 92 88 80 79 80 83 88 89 91
112 137 140 137 140 138 136 134 131 131 131 131 127 132 132 130 129 128 127 126 126 124 121 119 115 113 115 116 115 112 107 96 95 94 90 82 80 83 87 90 92 95 98
42 70 102 129 134 135 137 138 137 135 135 136 138 136 136 138 137 137 135 136 134 132 122 118 115 116 112 112 111 108 98 97 97 90 84 85 87 92 94 96 98 101 105
24 27 38 59 87 112 125 129 131 132 133 136 138 141 138 141 141 142 141 140 137 134 129 122 115 113 119 116 105 100 99 93 88 88 90 92 95 98 99 102 104 108 111
31 29 29 28 32 40 54 70 87 101 111 118 124 126 124 123 124 129 129 128 125 125 130 132 129 125 111 99 102 96 89 89 92 94 97 98 101 102 105 109 112 114 117
42 38 36 37 35 35 36 37 39 45 53 61 70 81 89 96 104 110 112 111 110 110 109 112 110 106 107 102 94 91 91 96 97 101 103 105 106 109 113 115 117 118 123
49 48 46 45 44 42 42 43 44 46 45 45 46 46 46 47 50 56 62 67 71 75 79 83 86 88 90 91 93 95 96 99 103 108 109 111 114 117 118 121 123 125 127
56 52 52 53 53 53 52 52 52 52 52 52 53 53 52 52 52 51 54 57 62 66 71 75 80 84 90 94 97 98 100 105 110 113 115 118 120 123 126 127 129 130 130
62 60 60 62 63 62 62 61 61 61 60 60 60 61 62 61 62 63 65 69 73 76 79 84 89 92 96 98 102 102 107 111 114 117 121 123 125 127 129 131 131 131 130
72 71 69 70 71 71 71 71 70 70 69 69 69 70 71 71 73 75 77 80 83 83 87 91 95 99 102 105 108 111 113 114 119 121 124 127 128 130 134 133 131 128 126
82 80 79 78 78 78 78 77 77 77 77 78 78 79 80 82 83 85 87 88 91 92 96 100 103 105 109 112 114 116 119 124 125 128 129 130 133 133 129 128 125 125 122
90 88 87 86 84 85 85 86 86 87 87 87 88 89 89 91 92 93 95 97 99 101 104 107 110 113 115 117 120 123 125 128 129 131 134 134 128 127 128 126 125 121 119
96 96 95 94 94 94 93 92 92 92 92 93 94 95 97 99 100 102 104 106 107 109 112 114 117 118 120 122 125 127 128 130 132 131 128 127 125 125 124 122 120 115 112
103 102 102 102 102 102 102 101 100 100 101 102 102 103 104 106 108 109 110 113 115 116 117 119 121 122 125 126 125 127 129 127 126 126 124 124 123 121 122 116 112 107 97
113 112 111 111 110 110 110 110 110 111 111 110 111 113 113 114 116 116 118 120 121 121 121 122 123 124 126 127 126 126 127 127 124 123 122 120 121 118 114 108 99 95 90
122 121 119 118 119 119 119 119 118 119 119 120 120 119 119 120 120 118 116 114 116 120 121 122 123 124 125 124 125 124 123 122 118 118 117 115 112 106 99 93 87 83 80
118 119 119 119 118 118 117 117 118 118 118 119 118 116 115 114 113 114 115 112 112 114 118 121 119 120 120 119 119 116 116 116 112 110 108 102 97 92 87 82 79 75 72
109 108 107 105 104 104 102 103 105 106 106 106 106 107 107 109 110 111 113 113 114 114 115 115 116 114 112 112 111 110 107 105 101 97 92 88 85 83 78 73 71 68 65
102 102 102 101 101 102 102 101 101 100 99 100 101 102 103 105 106 107 108 108 107 107 107 108 107 106 103 101 99 97 93 90 87 84 81 79 76 73 69 66 64 60 56
Wind_Direction
227 232 238 241 246 248 253 253 260 261 264 267 269 268 271 276 277 278 282 283 287 288 286 286 289 290 296 297 299 300 303 303 305 306 304 303 303 302 301 299 299 298 301
227 233 239 244 249 251 254 257 260 262 267 265 268 271 273 272 274 275 279 282 283 286 285 286 287 290 293 293 296 299 300 300 302 302 299 299 300 300 298 296 296 295 298
228 230 236 236 239 246 252 255 256 260 261 264 268 272 273 275 276 276 278 279 281 283 283 283 284 286 289 293 296 297 299 301 302 300 298 297 297 300 295 294 294 294 296
231 230 235 239 243 245 248 252 256 261 264 266 266 268 270 272 271 274 276 278 280 281 285 286 287 287 289 292 294 299 300 301 301 300 296 296 296 297 293 292 292 294 295
230 231 235 239 241 242 245 251 256 259 258 261 266 266 269 271 272 272 274 277 281 283 285 284 289 289 291 292 293 298 299 298 299 297 295 295 295 295 292 290 291 293 294
232 234 235 239 249 243 245 251 254 257 258 259 265 264 267 270 272 277 280 280 283 283 284 286 288 290 290 291 292 295 297 298 296 294 295 292 293 291 288 291 291 292 293
233 235 240 243 244 247 245 253 257 258 259 259 261 261 260 264 268 272 277 280 281 283 282 284 287 286 288 289 292 294 296 294 294 294 291 292 292 289 288 290 290 292 296
235 238 241 244 245 246 247 249 253 256 257 258 258 261 263 265 267 271 275 278 279 280 282 283 285 283 286 289 291 293 292 292 291 290 290 290 287 285 287 289 290 294 296
237 237 239 241 244 247 248 250 252 255 258 260 261 264 266 267 270 272 273 276 277 278 279 281 281 281 285 288 290 289 290 287 287 288 288 285 285 285 287 290 292 295 297
239 238 239 240 241 245 247 250 252 254 256 258 261 262 264 266 268 269 271 271 274 276 279 278 280 282 285 285 286 287 286 285 287 285 283 284 285 287 288 291 294 296 297
254 249 243 241 243 244 246 249 250 252 254 257 259 263 266 266 266 268 270 271 272 274 276 278 279 279 282 283 283 282 284 284 282 282 283 284 286 289 291 293 295 296 297
259 253 259 254 251 248 247 249 251 252 254 255 258 261 263 265 266 267 268 270 273 273 276 277 277 277 282 279 280 280 279 279 281 282 284 287 289 291 292 293 295 297 298
265 265 262 261 262 259 259 258 256 256 256 257 258 260 262 264 265 266 268 269 270 272 272 273 274 274 273 277 276 277 278 279 284 286 287 288 291 292 293 294 296 297 298
264 268 269 267 265 265 267 266 264 265 269 269 267 267 267 268 266 264 264 265 266 266 268 270 271 271 270 272 275 278 282 284 285 286 289 291 292 292 294 295 297 296 299
261 264 266 265 264 264 266 268 269 271 273 274 274 275 273 271 270 270 268 267 268 268 269 270 270 271 274 277 279 282 284 285 286 289 290 290 293 294 295 295 297 298 299
256 256 257 259 260 260 263 264 265 267 268 269 270 270 271 269 268 269 269 269 269 270 271 272 274 276 277 279 282 285 284 284 288 289 289 291 293 295 297 297 298 298 298
253 253 254 255 258 260 261 261 262 263 264 265 267 268 268 268 269 270 270 271 271 272 273 275 277 278 280 282 283 283 285 287 288 289 290 291 294 295 297 296 295 296 297
252 253 253 255 256 258 259 261 262 263 264 265 265 266 267 268 268 268 269 270 272 273 274 275 277 278 279 281 283 286 286 286 289 290 292 294 294 295 295 294 296 297 298
255 256 257 258 257 256 257 259 260 262 263 265 266 267 268 269 269 270 271 272 273 274 275 276 278 279 281 282 283 284 286 288 290 291 291 293 293 292 296 296 297 297 298
254 256 257 258 260 261 261 261 262 263 264 265 267 268 269 270 271 271 272 272 274 275 276 278 280 281 282 284 285 286 288 289 289 290 290 290 294 294 296 296 297 298 297
255 256 257 259 260 261 262 263 265 266 266 268 269 269 271 273 272 273 273 274 275 277 278 280 282 283 283 285 288 288 288 289 288 288 291 290 294 294 295 296 295 299 297
256 258 259 260 262 262 264 265 266 268 269 270 270 271 273 275 275 276 277 277 277 278 280 282 283 284 285 285 286 287 287 287 289 290 292 292 291 294 295 296 295 295 296
257 259 260 261 263 264 265 266 267 269 270 272 273 274 273 274 276 277 279 279 279 279 280 281 283 282 283 284 284 285 286 287 289 288 291 291 291 292 292 294 294 294 294
259 261 262 264 265 267 268 268 269 270 271 272 273 274 274 274 275 276 277 279 279 278 278 279 280 281 281 283 284 285 285 286 288 288 290 291 290 291 292 293 293 295 294
260 262 264 266 267 268 269 270 271 272 273 273 273 274 274 275 276 276 277 277 277 278 278 278 279 280 281 281 283 284 284 284 286 287 289 290 290 291 291 292 293 293 294
264 265 267 269 270 271 271 272 272 273 274 274 274 274 273 273 272 273 273 273 275 276 276 277 278 279 280 281 282 282 283 284 285 287 288 288 288 289 290 292 291 292 294
Height
10611 10613 10617 10619 10620 10619 10624 10625 10628 10630 10632 10633 10635 10640 10642 10646 10648 10648 10648 10648 10648 10647 10645 10643 10641 10637 10634 10630 10627 10623 10620 10616 10614 10611 10607 10601 10597 10591 10586 10582 10577 10573 10570
10596 10599 10603 10605 10606 10609 10612 10613 10613 10612 10615 10613 10618 10621 10624 10631 10633 10631 10634 10634 10634 10634 10631 10629 10627 10624 10621 10617 10614 10609 10605 10600 10597 10595 10592 10587 10583 10578 10574 10569 10564 10561 10557
10577 10582 10588 10591 10592 10597 10599 10599 10597 10601 10602 10601 10601 10602 10605 10610 10611 10614 10615 10617 10618 10618 10617 10615 10613 10611 10607 10603 10599 10594 10590 10586 10580 10577 10574 10569 10565 10561 10558 10554 10550 10546 10541
10557 10561 10569 10576 10579 10582 10585 10585 10582 10583 10586 10585 10587 10586 10588 10594 10595 10597 10599 10600 10601 10601 10601 10598 10596 10594 10590 10587 10582 10578 10573 10568 10564 10560 10555 10551 10546 10543 10539 10536 10533 10529 10524
10536 10544 10551 10556 10561 10565 10571 10568 10564 10569 10569 10568 10566 10567 10569 10570 10573 10579 10582 10584 10583 10582 10582 10581 10578 10574 10570 10568 10565 10560 10556 10551 10547 10542 10537 10532 10528 10524 10519 10517 10515 10512 10506
10516 10523 10531 10540 10539 10536 10552 10539 10545 10550 10551 10555 10555 10554 10552 10549 10550 10554 10558 10560 10564 10562 10561 10560 10558 10556 10553 10550 10547 10542 10538 10533 10528 10523 10518 10512 10509 10504 10500 10497 10493 10489 10486
10495 10502 10508 10517 10518 10521 10530 10527 10524 10536 10534 10537 10534 10531 10534 10537 10537 10539 10541 10543 10543 10543 10541 10540 10539 10537 10534 10530 10525 10521 10518 10513 10508 10503 10497 10494 10489 10486 10482 10478 10472 10467 10464
10470 10477 10484 10493 10498 10499 10504 10506 10509 10511 10513 10512 10511 10510 10512 10517 10523 10524 10523 10523 10522 10520 10520 10519 10519 10517 10515 10510 10504 10501 10497 10492 10487 10481 10476 10473 10469 10465 10461 10457 10450 10445 10442
10443 10450 10458 10465 10474 10480 10485 10487 10491 10491 10489 10492 10501 10491 10491 10497 10499 10499 10500 10499 10499 10498 10498 10497 10499 10496 10493 10488 10482 10478 10475 10470 10464 10459 10454 10451 10449 10444 10439 10435 10429 10422 10415
10424 10429 10436 10445 10447 10453 10459 10463 10466 10470 10470 10467 10466 10470 10472 10471 10475 10472 10473 10471 10475 10473 10477 10475 10476 10473 10468 10462 10459 10457 10452 10447 10441 10437 10434 10431 10427 10421 10415 10411 10405 10399 10391
10417 10418 10419 10421 10425 10430 10435 10440 10443 10447 10448 10449 10447 10443 10445 10443 10443 10444 10444 10446 10447 10450 10453 10452 10450 10447 10444 10442 10438 10434 10430 10424 10419 10415 10412 10408 10403 10397 10392 10385 10379 10371 10363
10407 10409 10411 10412 10412 10413 10415 10417 10420 10422 10423 10424 10427 10423 10421 10417 10414 10414 10416 10418 10422 10424 10425 10424 10423 10422 10423 10419 10413 10411 10407 10401 10397 10393 10387 10384 10377 10371 10365 10358 10351 10342 10332
10393 10395 10397 10398 10400 10402 10403 10403 10403 10403 10402 10401 10401 10398 10396 10393 10393 10391 10391 10393 10396 10395 10393 10391 10391 10395 10398 10395 10390 10388 10385 10379 10376 10367 10361 10356 10351 10344 10337 10329 10323 10314 10301
10378 10380 10382 10383 10384 10386 10386 10387 10388 10389 10388 10386 10384 10381 10378 10376 10373 10371 10371 10372 10372 10371 10370 10371 10374 10375 10372 10371 10368 10366 10363 10357 10348 10339 10335 10329 10322 10314 10307 10298 10289 10281 10270
10363 10365 10367 10368 10367 10368 10370 10370 10370 10369 10369 10368 10366 10365 10363 10362 10359 10360 10358 10356 10356 10355 10355 10354 10354 10353 10351 10348 10345 10343 10340 10330 10320 10314 10308 10299 10291 10285 10275 10267 10256 10246 10234
10346 10347 10348 10348 10348 10348 10350 10351 10351 10350 10351 10350 10349 10348 10346 10345 10343 10343 10342 10340 10338 10338 10338 10335 10333 10330 10326 10323 10318 10317 10312 10304 10297 10290 10279 10270 10262 10254 10244 10232 10222 10212 10200
10324 10326 10328 10329 10330 10330 10330 10330 10331 10330 10331 10331 10329 10328 10327 10326 10324 10323 10322 10319 10318 10320 10316 10312 10309 10304 10300 10296 10292 10286 10281 10275 10268 10261 10253 10243 10235 10224 10212 10199 10187 10178 10168
10300 10303 10305 10307 10309 10309 10309 10310 10310 10310 10310 10309 10309 10308 10306 10305 10304 10301 10299 10298 10296 10296 10292 10286 10283 10279 10273 10268 10263 10258 10251 10243 10238 10229 10220 10210 10201 10190 10178 10165 10154 10145 10132
10273 10276 10278 10282 10284 10285 10286 10287 10288 10287 10287 10286 10285 10284 10283 10281 10280 10278 10276 10273 10269 10268 10265 10260 10255 10251 10246 10241 10235 10228 10221 10212 10205 10196 10187 10178 10166 10156 10145 10133 10121 10110 10100
10247 10249 10251 10253 10255 10256 10258 10259 10260 10261 10262 10262 10261 10260 10258 10257 10254 10251 10249 10245 10243 10239 10235 10231 10226 10222 10216 10211 10204 10196 10190 10181 10171 10164 10153 10143 10134 10122 10112 10102 10089 10079 10067
10219 10221 10224 10226 10227 10228 10229 10231 10233 10233 10233 10232 10231 10230 10230 10228 10225 10222 10219 10215 10212 10209 10206 10202 10197 10192 10186 10179 10173 10164 10155 10146 10137 10126 10121 10110 10100 10089 10078 10070 10058 10049 10040
10190 10193 10196 10198 10199 10200 10202 10203 10203 10203 10203 10203 10202 10201 10199 10197 10194 10192 10190 10187 10183 10180 10176 10171 10166 10159 10152 10145 10137 10129 10121 10112 10103 10096 10087 10078 10068 10058 10050 10042 10033 10024 10016
10160 10162 10164 10167 10169 10170 10171 10172 10172 10172 10171 10171 10170 10168 10166 10165 10163 10160 10157 10152 10148 10146 10142 10137 10131 10124 10118 10111 10103 10096 10088 10080 10071 10064 10056 10048 10039 10030 10022 10016 10008 10000 9993
10128 10131 10133 10136 10138 10139 10140 10139 10139 10139 10139 10137 10135 10134 10133 10131 10130 10127 10124 10121 10117 10112 10108 10103 10096 10090 10084 10077 10071 10064 10055 10048 10041 10032 10026 10020 10012 10005 9998 9992 9985 9978 9972
10097 10101 10105 10107 10108 10109 10109 10108 10108 10108 10107 10105 10103 10101 10100 10099 10097 10095 10092 10088 10083 10078 10072 10067 10063 10056 10050 10045 10038 10032 10024 10017 10012 10005 9999 9993 9986 9979 9974 9969 9964 9958 9952
10069 10072 10073 10075 10076 10076 10076 10075 10073 10072 10072 10071 10070 10067 10065 10062 10059 10056 10053 10051 10048 10044 10039 10034 10029 10023 10018 10012 10006 10001 9996 9991 9985 9980 9975 9969 9963 9958 9954 9949 9944 9940 9935